EN

Hourly Weather Bolshoe Pyzakovo

Today, 22 October, Thursday

Time Temperature Precipitation Wind Pressure Humidity
00:00 -4°C° 0 mm 5 mps 748 mmHg 86%
01:00 -4°C° 0 mm 5 mps 748 mmHg 86%
02:00 -4°C° 0 mm 5 mps 749 mmHg 85%
03:00 -4°C° 0 mm 6 mps 749 mmHg 85%
04:00 -4°C° 0 mm 5 mps 749 mmHg 85%
05:00 -4°C° 0 mm 5 mps 749 mmHg 84%
06:00 -4°C° 0 mm 5 mps 749 mmHg 84%
07:00 -4°C° 0 mm 5 mps 750 mmHg 83%
08:00 -2°C° 0 mm 5 mps 750 mmHg 82%
09:00 -2°C° 0 mm 5 mps 750 mmHg 81%
10:00 -2°C° 0 mm 5 mps 750 mmHg 77%
11:00 -1°C° 0 mm 5 mps 750 mmHg 74%
12:00 -1°C° 0 mm 5 mps 750 mmHg 70%
13:00 -1°C° 0 mm 5 mps 751 mmHg 71%
14:00 -1°C° 0 mm 5 mps 751 mmHg 72%
15:00 -1°C° 0 mm 4 mps 751 mmHg 73%
16:00 -2°C° 0 mm 4 mps 751 mmHg 77%
17:00 -2°C° 0 mm 3 mps 751 mmHg 81%
18:00 -4°C° 0 mm 3 mps 751 mmHg 86%
19:00 -3°C° 0 mm 2 mps 751 mmHg 85%
20:00 -1°C° 0 mm 1 mps 751 mmHg 85%
21:00 -1°C° 0 mm 1 mps 752 mmHg 85%
22:00 -1°C° 0 mm 1 mps 751 mmHg 85%
23:00 -1°C° 0 mm 1 mps 751 mmHg 84%

Tomorrow, 23 October, Friday

Time Temperature Precipitation Wind Pressure Humidity
00:00 -2°C° 0 mm 1 mps 751 mmHg 84%
01:00 -4°C° 0 mm 2 mps 750 mmHg 84%
02:00 -4°C° 0 mm 2 mps 750 mmHg 84%
03:00 -5°C° 0 mm 3 mps 750 mmHg 84%
04:00 -4°C° 0 mm 3 mps 750 mmHg 83%
05:00 -4°C° 0 mm 4 mps 749 mmHg 82%
06:00 -4°C° 0 mm 4 mps 748 mmHg 81%
07:00 -4°C° 0 mm 5 mps 748 mmHg 80%
08:00 -2°C° 0 mm 5 mps 748 mmHg 79%
09:00 -2°C° 0 mm 6 mps 747 mmHg 79%
10:00 -2°C° 0 mm 6 mps 747 mmHg 80%
11:00 -2°C° 0 mm 7 mps 746 mmHg 82%
12:00 -1°C° 0 mm 7 mps 746 mmHg 84%
13:00 -1°C° 0.1 mm 7 mps 745 mmHg 88%
14:00 -1°C° 0.1 mm 7 mps 744 mmHg 91%
15:00 -1°C° 0.1 mm 7 mps 744 mmHg 94%
16:00 -1°C° 0.2 mm 7 mps 743 mmHg 94%
17:00 +1°C° 0.2 mm 6 mps 742 mmHg 95%
18:00 +1°C° 0.2 mm 6 mps 742 mmHg 95%
19:00 +1°C° 0.5 mm 6 mps 741 mmHg 95%
20:00 +1°C° 0.5 mm 6 mps 741 mmHg 96%
21:00 +1°C° 0.5 mm 5 mps 740 mmHg 96%
22:00 +1°C° 0.1 mm 5 mps 739 mmHg 97%
23:00 +3°C° 0.1 mm 4 mps 739 mmHg 97%

Day after tomorrow, 24 October, Saturday

Time Temperature Precipitation Wind Pressure Humidity
00:00 +3°C° 0.1 mm 4 mps 738 mmHg 98%
01:00 +3°C° 0.7 mm 4 mps 738 mmHg 98%
02:00 +4°C° 0.7 mm 3 mps 738 mmHg 98%
03:00 +4°C° 0.7 mm 3 mps 737 mmHg 98%
04:00 +4°C° 0.5 mm 3 mps 737 mmHg 98%
05:00 +4°C° 0.5 mm 3 mps 737 mmHg 98%
06:00 +5°C° 0.5 mm 4 mps 736 mmHg 98%
07:00 +5°C° 0.1 mm 3 mps 736 mmHg 98%
08:00 +5°C° 0.1 mm 3 mps 737 mmHg 98%
09:00 +7°C° 0.1 mm 3 mps 737 mmHg 97%
10:00 +7°C° 0 mm 3 mps 737 mmHg 97%
11:00 +7°C° 0 mm 3 mps 737 mmHg 96%
12:00 +7°C° 0 mm 3 mps 738 mmHg 95%
13:00 +6°C° 0 mm 4 mps 738 mmHg 95%
14:00 +6°C° 0 mm 4 mps 739 mmHg 94%
15:00 +7°C° 0 mm 4 mps 739 mmHg 94%
16:00 +6°C° 0 mm 4 mps 740 mmHg 92%
17:00 +6°C° 0 mm 4 mps 740 mmHg 91%
18:00 +5°C° 0 mm 4 mps 741 mmHg 90%
19:00 +5°C° 0 mm 4 mps 741 mmHg 90%
20:00 +4°C° 0 mm 4 mps 742 mmHg 91%
21:00 +4°C° 0 mm 4 mps 742 mmHg 91%
22:00 +3°C° 0 mm 4 mps 742 mmHg 91%
23:00 +1°C° 0 mm 4 mps 743 mmHg 92%

, 25 October, Sunday

Time Temperature Precipitation Wind Pressure Humidity
00:00 +1°C° 0 mm 4 mps 743 mmHg 92%
01:00 0°C° 0 mm 4 mps 743 mmHg 93%
02:00 0°C° 0 mm 3 mps 744 mmHg 93%
03:00 0°C° 0 mm 3 mps 744 mmHg 94%
04:00 -1°C° 0 mm 3 mps 744 mmHg 93%
05:00 -1°C° 0 mm 2 mps 744 mmHg 93%
06:00 -2°C° 0 mm 2 mps 744 mmHg 93%
07:00 -1°C° 0 mm 2 mps 744 mmHg 88%
08:00 +2°C° 0 mm 1 mps 744 mmHg 84%
09:00 +3°C° 0 mm 1 mps 744 mmHg 79%
10:00 +4°C° 0 mm 1 mps 744 mmHg 77%
11:00 +4°C° 0 mm 1 mps 744 mmHg 75%
12:00 +5°C° 0 mm 1 mps 744 mmHg 73%
13:00 +5°C° 0.2 mm 1 mps 744 mmHg 80%
14:00 +4°C° 0.2 mm 1 mps 744 mmHg 86%
15:00 +4°C° 0.2 mm 1 mps 744 mmHg 93%
16:00 +4°C° 0.1 mm 1 mps 744 mmHg 94%
17:00 +3°C° 0.1 mm 2 mps 744 mmHg 94%
18:00 +3°C° 0.1 mm 2 mps 744 mmHg 95%
19:00 +3°C° 0 mm 2 mps 744 mmHg 95%
20:00 +2°C° 0 mm 2 mps 745 mmHg 95%
21:00 +1°C° 0 mm 3 mps 745 mmHg 95%
22:00 +1°C° 0 mm 3 mps 745 mmHg 94%
23:00 +1°C° 0 mm 3 mps 745 mmHg 93%

25 October, Sunday

Time Temperature Precipitation Wind Pressure Humidity
00:00 +1°C° 0 mm 4 mps 743 mmHg 92%
01:00 0°C° 0 mm 4 mps 743 mmHg 93%
02:00 0°C° 0 mm 3 mps 744 mmHg 93%
03:00 0°C° 0 mm 3 mps 744 mmHg 94%
04:00 -1°C° 0 mm 3 mps 744 mmHg 93%
05:00 -1°C° 0 mm 2 mps 744 mmHg 93%
06:00 -2°C° 0 mm 2 mps 744 mmHg 93%
07:00 -1°C° 0 mm 2 mps 744 mmHg 88%
08:00 +2°C° 0 mm 1 mps 744 mmHg 84%
09:00 +3°C° 0 mm 1 mps 744 mmHg 79%
10:00 +4°C° 0 mm 1 mps 744 mmHg 77%
11:00 +4°C° 0 mm 1 mps 744 mmHg 75%
12:00 +5°C° 0 mm 1 mps 744 mmHg 73%
13:00 +5°C° 0.2 mm 1 mps 744 mmHg 80%
14:00 +4°C° 0.2 mm 1 mps 744 mmHg 86%
15:00 +4°C° 0.2 mm 1 mps 744 mmHg 93%
16:00 +4°C° 0.1 mm 1 mps 744 mmHg 94%
17:00 +3°C° 0.1 mm 2 mps 744 mmHg 94%
18:00 +3°C° 0.1 mm 2 mps 744 mmHg 95%
19:00 +3°C° 0 mm 2 mps 744 mmHg 95%
20:00 +2°C° 0 mm 2 mps 745 mmHg 95%
21:00 +1°C° 0 mm 3 mps 745 mmHg 95%
22:00 +1°C° 0 mm 3 mps 745 mmHg 94%
23:00 +1°C° 0 mm 3 mps 745 mmHg 93%

26 October, Monday

Time Temperature Precipitation Wind Pressure Humidity
00:00 -1°C° 0 mm 4 mps 745 mmHg 93%
01:00 -1°C° 0 mm 4 mps 746 mmHg 89%
02:00 -1°C° 0 mm 4 mps 746 mmHg 86%
03:00 -1°C° 0 mm 4 mps 746 mmHg 83%
04:00 -1°C° 0 mm 4 mps 747 mmHg 81%
05:00 -1°C° 0 mm 4 mps 747 mmHg 79%
06:00 -1°C° 0 mm 4 mps 747 mmHg 76%
07:00 -1°C° 0 mm 5 mps 748 mmHg 76%
08:00 -1°C° 0 mm 5 mps 748 mmHg 76%
09:00 -1°C° 0 mm 6 mps 749 mmHg 76%
10:00 -1°C° 0.1 mm 6 mps 749 mmHg 74%
11:00 -1°C° 0.1 mm 7 mps 750 mmHg 73%
12:00 -1°C° 0.1 mm 7 mps 750 mmHg 71%
13:00 -2°C° 0 mm 7 mps 751 mmHg 71%
14:00 -2°C° 0 mm 7 mps 752 mmHg 72%
15:00 -2°C° 0 mm 6 mps 753 mmHg 72%
16:00 -3°C° 0 mm 6 mps 753 mmHg 76%
17:00 -4°C° 0 mm 5 mps 754 mmHg 79%
18:00 -3°C° 0 mm 4 mps 755 mmHg 82%
19:00 -4°C° 0 mm 4 mps 755 mmHg 84%
20:00 -4°C° 0 mm 3 mps 756 mmHg 87%
21:00 -4°C° 0 mm 3 mps 756 mmHg 89%
22:00 -4°C° 0 mm 3 mps 757 mmHg 89%
23:00 -4°C° 0 mm 3 mps 757 mmHg 90%

27 October, Tuesday

Time Temperature Precipitation Wind Pressure Humidity
00:00 -4°C° 0 mm 3 mps 757 mmHg 91%
01:00 -4°C° 0 mm 3 mps 758 mmHg 90%
02:00 -4°C° 0 mm 3 mps 758 mmHg 90%
03:00 -3°C° 0 mm 2 mps 758 mmHg 90%
04:00 -3°C° 0 mm 2 mps 759 mmHg 90%
05:00 -3°C° 0 mm 2 mps 759 mmHg 89%
06:00 -3°C° 0 mm 2 mps 759 mmHg 89%
07:00 -3°C° 0 mm 2 mps 759 mmHg 85%
08:00 -2°C° 0 mm 2 mps 760 mmHg 81%
09:00 -1°C° 0 mm 2 mps 760 mmHg 77%
10:00 +1°C° 0 mm 2 mps 760 mmHg 72%
11:00 0°C° 0 mm 3 mps 760 mmHg 67%
12:00 +1°C° 0 mm 3 mps 760 mmHg 62%
13:00 +1°C° 0 mm 3 mps 760 mmHg 65%
14:00 +1°C° 0 mm 3 mps 760 mmHg 68%
15:00 +1°C° 0 mm 3 mps 760 mmHg 71%
16:00 0°C° 0 mm 3 mps 760 mmHg 76%
17:00 0°C° 0 mm 3 mps 760 mmHg 81%
18:00 -1°C° 0 mm 3 mps 760 mmHg 86%
19:00 -1°C° 0 mm 3 mps 760 mmHg 87%
20:00 -1°C° 0 mm 3 mps 759 mmHg 87%
21:00 -2°C° 0 mm 3 mps 759 mmHg 88%
22:00 -2°C° 0 mm 3 mps 759 mmHg 88%
23:00 -2°C° 0 mm 3 mps 759 mmHg 87%
Show more